Weather History for Athens Eleftherios, Greece

Change the Weather History Date:

Saturday, May 4, 2013

  Actual Average (LGEL) Record (LGEL)
Temperature  
Mean Temperature 70 °F -  
Max Temperature 82 °F 74 °F 87 °F (2003)
Min Temperature 57 °F 55 °F 50 °F (1997)
Cooling Degree Days 4    
Growing Degree Days 20 (Base 50)    
Moisture  
Dew Point 49 °F    
Average Humidity 50    
Maximum Humidity 82    
Minimum Humidity 23    
Precipitation  
Precipitation 0.00 in - - ()
Sea Level Pressure  
Sea Level Pressure 29.92 in    
Wind  
Wind Speed 4 mph ()    
Max Wind Speed 14 mph    
Max Gust Speed -    
Visibility 6.2 miles    
Events      
Averages and records for this station are not official NWS values.
T = Trace of Precipitation, MM = Missing Value Source: Averaged Metar Reports

Daily Weather History Graph

Daily Weather History Graph

Search for Another Location

Airport:

Trip Planner

Search our weather history database for the weather conditions in past years. The results will help you decide how hot, cold, wet, or windy it might be!

Date:

Astronomy

May. 04, 2013 Rise Set
Actual Time 6:24 AM EEST 8:17 PM EEST
Civil Twilight 5:56 AM EEST 8:46 PM EEST
Nautical Twilight 5:21 AM EEST 9:21 PM EEST
Astronomical Twilight 4:44 AM EEST 9:58 PM EEST
Moon 3:07 AM EEST (5/4) 3:00 PM EEST (5/4)
Length of Visible Light 14h 49m
Length of Day
13h 52m
Waning Crescent, 30% of the Moon is Illuminated
May 4
Waning Crescent
May 10
New
May 18
First Quarter
May 25
Full
May 31
Last Quarter

Hourly Weather History & Observations

Time (EEST) Temp. Dew Point Humidity Pressure Visibility Wind Dir Wind Speed Gust Speed Precip Events Conditions
12:20 AM 64.4 °F 53.6 °F 68% 29.89 in - WSW 4.6 mph - N/A   Clear
12:50 AM 60.8 °F 51.8 °F 72% 29.89 in - Variable 3.5 mph - N/A   Clear
1:20 AM 59.0 °F 51.8 °F 77% 29.89 in - WNW 3.5 mph - N/A   Clear
1:50 AM 59.0 °F 51.8 °F 77% 29.89 in - NW 3.5 mph - N/A   Clear
2:20 AM 59.0 °F 51.8 °F 77% 29.89 in - WNW 4.6 mph - N/A   Clear
2:50 AM 59.0 °F 50.0 °F 72% 29.89 in - WNW 3.5 mph - N/A   Clear
3:20 AM 62.6 °F 53.6 °F 72% 29.86 in - WNW 3.5 mph - N/A   Clear
3:50 AM 62.6 °F 51.8 °F 68% 29.86 in - WSW 4.6 mph - N/A   Clear
4:20 AM 59.0 °F 50.0 °F 72% 29.86 in - West 3.5 mph - N/A   Clear
4:50 AM 59.0 °F 51.8 °F 77% 29.89 in - ENE 1.2 mph - N/A   Clear
5:20 AM 57.2 °F 50.0 °F 77% 29.89 in - Calm Calm - N/A   Clear
5:50 AM 57.2 °F 50.0 °F 77% 29.89 in - WNW 3.5 mph - N/A   Clear
6:20 AM 57.2 °F 51.8 °F 82% 29.89 in - Calm Calm - N/A   Clear
6:50 AM 59.0 °F 48.2 °F 67% 29.89 in - West 2.3 mph - N/A   Clear
7:20 AM 60.8 °F 51.8 °F 72% 29.92 in - Variable 2.3 mph - N/A   Clear
7:50 AM 66.2 °F 53.6 °F 64% 29.92 in - Calm Calm - N/A   Clear
8:20 AM 64.4 °F 53.6 °F 68% 29.92 in - Variable 1.2 mph - N/A   Clear
8:50 AM 71.6 °F 53.6 °F 53% 29.92 in - ENE 3.5 mph - N/A   Clear
9:20 AM 71.6 °F 53.6 °F 53% 29.92 in - ENE 4.6 mph - N/A   Clear
9:50 AM 73.4 °F 51.8 °F 47% 29.95 in - East 4.6 mph - N/A   Clear
10:20 AM 75.2 °F 50.0 °F 41% 29.95 in - Variable 3.5 mph - N/A   Clear
10:50 AM 77.0 °F 50.0 °F 39% 29.95 in - ESE 4.6 mph - N/A   Clear
11:20 AM 78.8 °F 50.0 °F 36% 29.95 in - East 5.8 mph - N/A   Clear
11:50 AM 78.8 °F 46.4 °F 32% 29.95 in - NE 6.9 mph - N/A   Clear
12:20 PM 80.6 °F 48.2 °F 32% 29.95 in - NE 6.9 mph - N/A   Clear
12:50 PM 82.4 °F 46.4 °F 28% 29.95 in - NE 9.2 mph - N/A   Clear
1:20 PM 82.4 °F 44.6 °F 26% 29.95 in 6.2 mi ENE 9.2 mph - N/A   Partly Cloudy
1:50 PM 82.4 °F 42.8 °F 25% 29.95 in - ENE 10.4 mph - N/A   Clear
2:20 PM 82.4 °F 41.0 °F 23% 29.95 in 6.2 mi NNE 13.8 mph - N/A   Partly Cloudy
2:50 PM 82.4 °F 42.8 °F 25% 29.95 in 6.2 mi ENE 12.7 mph - N/A   Partly Cloudy
3:20 PM 82.4 °F 42.8 °F 25% 29.92 in 6.2 mi NE 12.7 mph - N/A   Partly Cloudy
3:50 PM 82.4 °F 42.8 °F 25% 29.92 in 6.2 mi NE 12.7 mph - N/A   Partly Cloudy
4:20 PM 82.4 °F 46.4 °F 28% 29.92 in 6.2 mi NE 10.4 mph - N/A   Partly Cloudy
4:50 PM 82.4 °F 46.4 °F 28% 29.92 in 6.2 mi NE 9.2 mph - N/A   Partly Cloudy
5:20 PM 82.4 °F 46.4 °F 28% 29.92 in 6.2 mi ENE 9.2 mph - N/A   Partly Cloudy
6:20 PM 82.4 °F 42.8 °F 25% 29.92 in - NE 6.9 mph - N/A   Clear
6:50 PM 78.8 °F 48.2 °F 34% 29.92 in - NNE 6.9 mph - N/A   Clear
7:20 PM 77.0 °F 51.8 °F 41% 29.92 in - NNE 6.9 mph - N/A   Clear
7:50 PM 75.2 °F 51.8 °F 44% 29.92 in - NNE 5.8 mph - N/A   Clear
8:20 PM 73.4 °F 50.0 °F 44% 29.92 in - North 4.6 mph - N/A   Clear
8:50 PM 71.6 °F 50.0 °F 46% 29.92 in - Variable 1.2 mph - N/A   Clear
9:20 PM 69.8 °F 50.0 °F 49% 29.95 in - SW 1.2 mph - N/A   Clear
9:50 PM 71.6 °F 50.0 °F 46% 29.95 in - Calm Calm - N/A   Clear
10:20 PM 71.6 °F 50.0 °F 46% 29.98 in - Variable 2.3 mph - N/A   Clear
10:50 PM 68.0 °F 50.0 °F 52% 29.98 in - WSW 3.5 mph - N/A   Clear
11:20 PM 66.2 °F 50.0 °F 56% 29.98 in - Variable 2.3 mph - N/A   Clear
11:50 PM 68.0 °F 48.2 °F 49% 29.98 in - Variable 1.2 mph - N/A   Clear